D/1978 R1 ( Haneda-Campos ) 2010

Japanese version
Home page
Updated on March 22, 2010

---------------------------------------------------------------------

* Profile

* Orbital Elements

Perturbed ephemeris below is based on elements from NK 504. 

 Epoch = 2455360.50000 TT   T = 2455354.87930 TT
 Peri. =  307.16624         a =     3.4541672 AU
 Node  =   66.50880 J2000.0 e =     0.6300043
 Incl. =    4.94478         q =     1.2780272 AU

* Finding Charts

* Magnitudes Graph

        m1 = 13.0 + 5 log d + 25 log r

---------------------------------------------------------------------

The orbital elements are calculated using the Minor Planet & Comet Ephemeris Service.
The charts are made with StellaNavigator Ver.8 (AstroArts).
The magnitudes graphs are made with Comet for Windows.

---------------------------------------------------------------------

Copyright(C) Seiichi Yoshida (comet@aerith.net). All rights reserved.